Location: Ch?enovice
(49.7164°N, 15.2160°E)
Time: 16:43:36
(UTC+00:00)

FENGYUN 3A - Pass Details

Date: 23 May 2024
Orbit: 821 x 835 km, 98.6° (Epoch: 12 June)

Event Time Altitude Azimuth Distance (km) Brightness Sun altitude
Rises 02:13:56 0° 10° (N) 3,373 7.8 -7.1°
Reaches altitude 10° 02:16:22 10° 5° (N) 2,434 6.9 -6.8°
Maximum altitude 02:21:29 47° 293° (WNW) 1,088 4.2 -6.2°
Drops below altitude 10° 02:26:35 10° 221° (SW) 2,415 5.4 -5.6°
Enters shadow 02:27:27 - 219° (SW) 2,749 5.7 -5.5°
